Wind_Speed
17 18 18 18 18 19 18 17 16 17 18 17 17 18 17 16 14 13 12 13 13 13 13 13 14 14 14 13 14 14 13 14 13 13 12 11 11 11 10 10 10 9 8 8
17 18 18 18 18 18 18 17 16 17 18 18 18 17 17 16 15 15 15 14 13 14 15 15 15 15 14 14 14 14 14 14 13 13 12 11 11 11 11 11 10 11 10 9
17 17 18 19 18 19 18 18 17 17 17 18 18 17 16 16 16 16 16 15 15 15 15 16 15 15 15 15 14 14 14 13 14 13 12 12 11 11 11 10 11 11 10 9
17 18 18 19 19 18 18 18 18 18 18 18 18 18 17 16 16 16 16 16 16 16 16 15 15 15 16 16 15 14 13 13 12 12 11 12 12 11 11 11 11 11 11 11
17 17 17 18 18 18 18 19 19 20 19 19 19 19 17 18 17 17 17 17 16 16 16 16 16 16 17 17 16 14 13 13 13 13 12 12 12 12 12 12 11 11 12 12
17 17 17 17 18 18 18 19 20 21 21 21 19 19 17 18 17 17 17 16 16 16 16 16 16 16 17 17 16 15 14 13 13 14 13 13 13 13 13 13 12 12 12 12
18 17 17 18 18 19 19 20 20 20 21 20 19 20 18 18 18 18 18 17 16 16 16 16 16 16 16 16 16 15 15 15 15 15 15 14 14 14 14 14 13 13 13 13
17 17 17 18 18 19 19 19 20 20 20 19 20 21 19 18 19 19 19 19 18 17 17 17 16 17 17 16 17 16 16 16 16 16 17 16 15 15 15 14 14 14 14 13
15 16 16 17 18 19 20 20 20 21 21 21 22 21 20 19 19 19 19 19 19 18 19 18 18 18 18 18 18 17 17 17 18 18 18 17 17 16 16 16 16 16 15 15
15 14 16 16 17 18 19 20 20 21 22 22 23 22 20 19 19 20 20 19 18 19 19 19 20 20 20 19 19 18 18 18 19 19 19 18 18 17 17 17 17 17 17 17
16 16 16 17 18 18 19 20 20 21 22 23 23 21 19 20 20 19 19 20 20 20 20 21 21 21 21 21 20 20 19 19 19 18 18 18 18 18 18 18 18 19 18 18
17 17 17 17 18 18 18 20 20 21 21 22 23 21 19 20 20 21 21 21 21 21 20 21 21 22 22 22 21 20 20 20 19 19 19 19 19 19 19 19 19 19 19 19
18 19 17 17 18 18 19 20 21 21 22 22 23 21 21 21 21 21 21 21 21 21 21 21 22 22 22 22 21 21 20 20 21 20 20 20 20 20 19 20 20 19 19 19
20 19 18 19 19 20 21 21 22 22 23 23 23 22 21 22 22 21 21 21 21 22 22 22 22 22 22 22 21 21 21 21 20 20 20 20 20 20 20 20 20 20 20 20
22 21 20 20 21 21 21 22 23 24 25 25 23 22 22 22 22 21 22 22 22 22 22 22 22 22 22 22 21 21 22 21 20 20 20 20 20 21 21 21 21 21 21 22
22 23 23 22 22 23 24 24 24 25 25 25 24 23 22 22 22 22 22 22 23 23 23 23 22 22 22 22 21 21 21 21 21 21 21 20 20 21 21 21 21 21 21 21
24 24 24 24 24 24 24 24 26 26 26 25 24 23 23 23 22 23 23 23 23 23 23 23 23 22 22 22 21 21 21 21 21 21 21 21 21 21 21 21 21 21 21 21
24 24 25 25 25 26 24 24 25 26 26 26 25 24 24 24 24 24 24 23 23 23 23 23 22 22 22 22 21 21 21 20 20 21 20 20 20 21 21 21 21 21 21 21
25 25 26 26 26 26 25 25 25 26 25 26 26 25 25 25 25 24 24 24 23 22 22 22 23 23 23 22 23 23 23 22 21 21 20 20 20 19 19 20 20 20 21 20
25 26 26 26 26 26 25 25 25 26 25 25 25 25 25 24 25 24 24 23 23 23 22 22 22 21 22 22 22 22 22 22 22 21 21 20 19 19 19 19 20 20 21 21
24 25 25 25 26 26 26 25 25 25 25 25 25 25 26 26 25 25 24 24 24 24 23 23 22 22 22 21 22 21 21 22 22 22 21 20 20 20 20 20 21 21 21 21
24 24 25 25 26 26 26 25 25 25 25 25 25 26 26 25 25 24 24 24 24 24 23 23 23 22 22 21 22 22 22 22 22 22 20 20 20 20 19 20 20 20 21 21
25 25 25 25 25 26 26 26 25 26 26 26 26 26 25 24 24 24 24 24 24 23 23 23 22 22 22 22 23 23 23 22 21 21 20 20 20 20 19 19 19 19 19 20
25 24 25 25 25 26 26 26 25 25 26 26 26 25 25 25 25 24 24 24 24 24 23 22 22 22 22 22 23 22 21 20 20 20 20 20 20 20 19 19 19 19 19 20
24 24 25 25 26 26 26 25 25 25 25 25 25 25 25 26 25 24 23 23 23 23 23 23 23 22 22 22 21 21 21 20 20 20 19 19 19 19 19 18 19 19 19 20
24 24 24 24 25 25 25 26 26 25 25 25 25 25 26 25 24 23 23 23 23 23 23 24 24 22 22 21 21 22 21 21 20 20 20 19 19 19 19 19 19 19 19 20
Wind_Direction
237 237 236 235 234 233 235 238 242 242 246 251 254 259 264 267 270 275 282 292 299 301 304 308 310 310 306 305 306 304 306 306 301 300 298 301 304 301 298 296 294 298 297 298
235 236 234 232 232 233 235 239 242 242 249 253 255 258 260 261 266 275 280 288 295 300 303 307 305 305 303 304 305 300 297 300 298 296 294 298 303 305 303 300 295 296 292 288
234 235 234 233 235 235 237 241 243 246 250 254 255 255 259 263 268 275 281 287 290 296 301 304 306 306 306 301 301 298 296 296 297 291 291 296 298 298 302 299 294 291 289 286
233 234 234 234 235 237 237 239 243 246 248 251 255 257 260 264 268 274 281 285 288 292 298 303 304 306 305 300 297 294 294 293 292 289 292 294 294 296 297 298 294 290 286 285
233 235 237 238 239 240 239 240 244 248 251 254 259 262 262 265 269 275 281 286 288 291 297 300 300 301 302 303 294 287 288 289 286 287 289 290 289 290 294 294 294 290 284 283
233 237 238 240 241 242 242 245 247 248 253 258 262 264 264 268 273 276 280 284 288 291 295 297 297 297 298 301 295 283 283 285 285 282 283 284 285 288 293 292 290 289 286 280
234 237 239 241 241 243 245 247 249 249 253 259 261 263 266 271 277 280 283 284 286 288 292 294 292 293 296 296 294 283 282 285 284 282 281 281 284 287 291 292 291 287 285 283
237 237 239 241 243 245 244 248 251 256 260 260 259 263 269 271 275 280 283 283 284 287 289 289 288 289 292 290 289 288 287 286 284 284 282 283 283 284 286 287 286 284 282 282
237 238 240 245 245 244 244 248 254 258 261 262 262 266 269 270 272 277 281 282 284 288 290 288 289 289 289 289 288 287 288 285 282 282 280 279 280 281 283 283 282 282 280 279
240 242 243 247 248 247 247 250 255 258 262 266 267 269 272 275 277 280 281 284 287 290 292 292 290 289 290 291 293 291 285 283 283 282 280 279 278 279 280 280 281 281 278 276
244 245 245 246 247 250 251 253 255 258 261 266 271 273 275 276 278 280 281 282 285 288 287 288 287 286 288 289 293 291 289 285 284 284 279 278 278 276 277 277 277 276 275 275
247 250 251 252 252 254 255 256 257 260 264 268 272 276 277 276 277 279 281 282 285 287 285 286 287 286 286 286 289 290 290 290 288 286 282 279 277 274 275 275 274 275 275 273
252 254 255 254 256 257 259 260 259 262 266 270 275 280 279 279 278 278 280 283 286 288 287 285 287 287 286 285 287 288 290 290 289 289 285 280 276 274 274 274 274 275 276 273
261 260 260 259 260 261 261 261 261 263 267 271 275 279 280 282 281 279 280 283 285 288 288 287 287 287 286 285 286 287 287 288 288 289 288 281 276 276 275 273 272 272 273 271
261 262 263 263 263 263 264 264 265 264 267 270 274 277 281 283 283 281 281 282 283 285 285 287 286 285 283 284 284 285 286 289 289 289 287 282 278 276 275 274 273 272 272 270
259 261 262 263 263 262 263 263 264 266 267 270 273 275 279 282 282 283 283 282 283 283 284 285 283 283 283 283 282 283 287 288 288 287 286 280 277 275 275 273 274 273 272 269
260 260 261 262 263 263 264 266 266 267 268 273 277 278 278 280 282 283 284 284 283 282 284 284 284 283 282 281 280 279 284 286 287 288 286 281 279 276 273 272 272 272 271 269
261 262 262 265 266 266 268 268 268 268 269 273 277 277 277 278 278 279 280 281 282 283 283 283 282 283 283 281 279 280 283 284 286 288 287 283 281 278 275 274 272 271 272 270
261 263 264 265 268 269 268 269 269 269 270 273 276 276 275 277 278 278 278 280 280 280 280 281 282 283 282 280 278 278 280 280 282 284 284 284 282 280 278 276 274 272 271 271
261 262 264 265 268 270 269 269 270 270 270 271 273 275 274 276 277 277 277 277 278 278 278 281 282 281 280 279 279 277 279 279 281 283 283 283 284 281 277 277 276 273 271 271
264 265 265 266 268 270 271 271 270 269 270 270 272 273 274 276 277 277 277 278 279 280 279 279 281 283 282 280 280 280 280 280 281 282 282 282 283 281 278 278 277 275 272 270
267 267 267 269 270 272 273 272 271 271 270 270 271 271 273 274 274 274 276 279 280 279 279 280 281 283 281 281 282 280 281 282 282 282 281 282 283 282 281 281 279 277 273 271
269 271 271 271 272 272 272 273 272 271 271 270 269 269 271 271 272 273 276 278 278 278 279 279 280 281 281 280 281 280 279 280 282 283 282 282 283 282 280 279 279 279 275 270
268 270 272 272 272 272 272 271 270 271 271 270 269 269 269 270 272 275 276 276 275 275 278 279 279 279 280 280 280 279 279 280 280 281 282 282 282 282 280 279 280 279 277 273
270 271 272 271 272 272 272 272 271 270 270 269 267 268 268 270 274 275 274 275 276 276 277 278 277 278 278 278 279 280 278 278 278 278 280 281 282 282 282 281 280 279 278 275
271 272 273 273 272 273 273 273 273 271 270 269 267 267 267 269 271 274 275 275 274 274 275 276 276 277 277 278 278 278 278 277 276 276 278 279 280 281 281 281 281 281 280 279
Height
5855 5858 5859 5861 5863 5864 5866 5867 5869 5870 5870 5871 5871 5872 5873 5873 5873 5873 5873 5872 5872 5871 5871 5869 5868 5866 5865 5864 5863 5861 5860 5859 5857 5856 5855 5854 5853 5852 5851 5850 5849 5848 5848 5847
5853 5854 5856 5857 5859 5861 5863 5864 5866 5867 5867 5867 5868 5869 5870 5870 5870 5870 5870 5870 5869 5868 5868 5867 5865 5863 5862 5861 5860 5858 5857 5856 5854 5853 5853 5851 5850 5849 5848 5847 5847 5846 5845 5845
5849 5852 5853 5854 5856 5858 5860 5862 5863 5863 5864 5864 5865 5867 5867 5867 5867 5867 5867 5867 5866 5865 5864 5864 5862 5861 5859 5858 5856 5855 5854 5853 5851 5850 5849 5848 5847 5847 5846 5845 5844 5843 5843 5843
5846 5848 5849 5851 5853 5855 5857 5858 5859 5860 5860 5861 5863 5863 5865 5864 5864 5864 5864 5864 5863 5862 5861 5860 5859 5857 5856 5854 5853 5852 5851 5850 5848 5847 5846 5846 5845 5844 5843 5842 5841 5841 5840 5840
5843 5845 5847 5848 5850 5852 5854 5854 5855 5856 5857 5858 5858 5860 5862 5861 5861 5861 5861 5860 5860 5859 5858 5857 5855 5854 5852 5850 5848 5847 5847 5846 5845 5844 5843 5843 5842 5841 5840 5839 5839 5838 5837 5837
5840 5842 5843 5845 5847 5848 5850 5851 5852 5853 5853 5855 5855 5856 5858 5857 5857 5857 5857 5857 5856 5855 5854 5853 5852 5850 5848 5846 5844 5843 5843 5842 5841 5840 5839 5839 5838 5838 5837 5836 5835 5835 5834 5834
5837 5839 5840 5842 5843 5845 5847 5848 5849 5849 5850 5851 5852 5852 5854 5854 5854 5854 5853 5853 5852 5852 5851 5850 5848 5847 5845 5843 5841 5839 5838 5838 5837 5836 5835 5835 5834 5834 5833 5833 5832 5831 5831 5831
5834 5836 5837 5839 5840 5841 5843 5844 5846 5846 5847 5848 5848 5848 5850 5850 5850 5850 5849 5848 5848 5848 5847 5846 5844 5843 5841 5839 5837 5835 5834 5833 5833 5832 5832 5831 5830 5830 5829 5829 5828 5828 5827 5827
5831 5833 5834 5835 5836 5838 5839 5840 5842 5842 5842 5843 5844 5845 5846 5846 5846 5846 5845 5844 5843 5843 5842 5841 5839 5838 5836 5834 5832 5830 5829 5828 5828 5827 5827 5826 5826 5825 5825 5825 5824 5824 5823 5823
5828 5830 5831 5832 5833 5834 5835 5836 5837 5838 5838 5838 5839 5840 5842 5842 5841 5841 5840 5839 5839 5838 5837 5836 5834 5833 5831 5829 5828 5826 5825 5824 5823 5822 5822 5821 5821 5821 5820 5820 5820 5820 5819 5819
5824 5826 5828 5829 5829 5830 5831 5832 5833 5833 5834 5834 5834 5838 5838 5837 5837 5836 5835 5835 5834 5833 5832 5831 5830 5828 5827 5825 5823 5821 5820 5819 5818 5817 5816 5816 5816 5816 5815 5815 5815 5815 5814 5814
5821 5822 5823 5825 5826 5826 5827 5828 5829 5829 5830 5830 5830 5834 5832 5832 5831 5831 5831 5830 5829 5828 5827 5825 5824 5822 5821 5819 5818 5816 5815 5814 5813 5812 5811 5810 5810 5810 5810 5810 5810 5810 5809 5809
5817 5818 5819 5821 5823 5823 5822 5823 5824 5824 5825 5825 5825 5829 5827 5826 5826 5826 5825 5824 5823 5822 5821 5819 5818 5816 5815 5813 5812 5811 5810 5809 5807 5805 5804 5804 5804 5804 5804 5805 5804 5805 5804 5804
5812 5813 5815 5817 5817 5817 5817 5818 5818 5819 5819 5820 5821 5821 5821 5821 5820 5820 5819 5819 5817 5816 5815 5813 5812 5810 5809 5808 5807 5806 5805 5803 5802 5800 5799 5798 5798 5799 5799 5799 5799 5799 5799 5799
5807 5808 5809 5810 5811 5812 5812 5813 5813 5814 5814 5815 5815 5815 5816 5815 5814 5814 5813 5813 5812 5810 5809 5808 5806 5804 5803 5802 5801 5800 5799 5798 5796 5795 5794 5793 5793 5793 5793 5793 5793 5793 5793 5793
5801 5802 5804 5804 5805 5805 5806 5807 5808 5808 5809 5809 5810 5810 5810 5809 5809 5808 5807 5806 5806 5804 5803 5802 5800 5799 5798 5796 5795 5795 5793 5792 5791 5789 5788 5787 5787 5787 5787 5787 5787 5787 5787 5787
5796 5797 5798 5799 5799 5799 5800 5802 5802 5802 5803 5804 5804 5805 5803 5803 5803 5802 5801 5800 5799 5798 5797 5796 5794 5793 5791 5790 5789 5788 5787 5786 5785 5783 5782 5781 5781 5780 5780 5780 5781 5781 5781 5781
5790 5791 5791 5792 5793 5793 5797 5795 5795 5796 5797 5797 5797 5797 5797 5796 5796 5795 5795 5794 5793 5792 5791 5789 5788 5787 5785 5784 5783 5782 5781 5780 5779 5777 5776 5775 5774 5774 5774 5774 5774 5774 5775 5775
5784 5785 5785 5785 5785 5787 5789 5789 5788 5789 5790 5791 5790 5790 5790 5789 5789 5789 5788 5786 5786 5785 5784 5783 5782 5781 5779 5778 5777 5776 5775 5775 5773 5772 5771 5769 5768 5768 5768 5768 5768 5768 5768 5768
5777 5778 5779 5779 5779 5780 5783 5782 5782 5783 5783 5784 5783 5783 5782 5782 5782 5782 5781 5779 5778 5778 5777 5776 5775 5774 5773 5771 5770 5770 5769 5768 5767 5766 5765 5764 5763 5762 5762 5762 5761 5761 5762 5762
5770 5771 5771 5772 5772 5773 5774 5774 5775 5776 5777 5776 5775 5775 5775 5774 5774 5774 5773 5772 5771 5771 5770 5769 5769 5768 5767 5766 5765 5764 5763 5762 5761 5760 5759 5758 5757 5757 5756 5756 5755 5755 5755 5755
5764 5764 5765 5765 5766 5769 5767 5767 5768 5768 5768 5768 5768 5767 5767 5767 5766 5766 5765 5765 5764 5764 5763 5763 5762 5761 5761 5760 5759 5758 5757 5756 5755 5754 5753 5752 5752 5751 5750 5749 5749 5748 5748 5749
5757 5758 5758 5759 5761 5760 5759 5759 5760 5759 5760 5760 5760 5760 5759 5759 5759 5759 5758 5757 5757 5756 5756 5756 5756 5755 5754 5754 5753 5752 5751 5750 5749 5748 5748 5747 5746 5745 5744 5743 5743 5742 5742 5743
5751 5751 5751 5751 5752 5752 5752 5752 5752 5752 5752 5752 5752 5752 5752 5752 5752 5751 5751 5750 5749 5749 5749 5749 5749 5748 5748 5747 5746 5746 5745 5744 5743 5743 5742 5741 5740 5739 5738 5737 5737 5737 5736 5737
5744 5744 5744 5744 5744 5744 5745 5744 5744 5744 5744 5744 5744 5744 5744 5744 5744 5744 5743 5743 5743 5742 5742 5742 5742 5742 5741 5741 5740 5739 5738 5738 5737 5737 5736 5736 5735 5734 5733 5732 5731 5731 5731 5730
5737 5737 5737 5737 5737 5737 5737 5737 5736 5736 5736 5736 5736 5736 5736 5736 5737 5737 5736 5736 5736 5736 5736 5735 5735 5735 5734 5734 5733 5733 5732 5732 5731 5731 5730 5730 5729 5728 5727 5727 5726 5725 5725 5724